EW7414 Weather Reports


Display with metric or nautical units.
time (UTC)temp
F
wind
direction
speed
MPH
gust
MPH
rain 1hr
in
rain 24hr
in
rain mn
in
humidity
%
barometer
mb
20260504041819 47 219 0.0 0.0 0.00 0.00 0.00 55 1013.6
20260504041325 47 225 0.0 0.0 0.00 0.00 0.00 55 1013.5
20260504040832 47 244 0.0 0.0 0.00 0.00 0.00 55 1013.5
20260504040340 47 226 0.0 0.0 0.00 0.00 0.00 55 1013.5
20260504035823 47 236 0.0 0.0 0.00 0.00 0.00 55 1013.5
20260504035327 47 221 0.0 0.0 0.00 0.00 0.00 55 1013.5
20260504034817 47 210 0.0 0.0 0.00 0.00 0.00 55 1013.4
20260504034323 47 131 0.0 0.0 0.00 0.00 0.00 55 1013.4
20260504033829 47 247 0.0 0.0 0.00 0.00 0.00 55 1013.4
20260504033314 47 256 0.0 0.0 0.00 0.00 0.00 55 1013.5
20260504032821 47 203 0.0 0.0 0.00 0.00 0.00 55 1013.4
20260504032347 47 247 0.0 0.0 0.00 0.00 0.00 55 1013.5
20260504031849 47 214 0.0 0.0 0.00 0.00 0.00 55 1013.4
20260504031333 47 220 0.0 0.0 0.00 0.00 0.00 55 1013.4
20260504030818 47 222 0.0 0.0 0.00 0.00 0.00 55 1013.4
20260504030324 47 236 0.0 0.0 0.00 0.00 0.00 55 1013.5
20260504025830 47 221 0.0 0.0 0.00 0.00 0.00 54 1013.4
20260504025320 48 228 0.0 0.0 0.00 0.00 0.00 54 1013.4
20260504024846 48 236 0.0 0.0 0.00 0.00 0.00 54 1013.5
20260504024332 48 228 0.0 0.0 0.00 0.00 0.00 54 1013.6
20260504023817 48 239 0.0 0.0 0.00 0.00 0.00 54 1013.6
20260504023345 48 212 0.0 0.0 0.00 0.00 0.00 54 1013.6
20260504022830 48 213 0.0 0.0 0.00 0.00 0.00 53 1013.6
20260504022315 48 218 0.0 0.0 0.00 0.00 0.00 53 1013.5
20260504021822 48 214 0.0 0.0 0.00 0.00 0.00 53 1013.5
20260504021326 48 231 0.0 0.0 0.00 0.00 0.00 52 1013.6
20260504020831 49 226 0.0 0.0 0.00 0.00 0.00 52 1013.6
20260504020319 49 229 0.0 0.0 0.00 0.00 0.00 52 1013.4
20260504015826 49 232 0.0 0.0 0.00 0.00 0.00 52 1013.5
20260504015314 48 236 0.0 0.0 0.00 0.00 0.00 52 1013.5
20260504014824 48 211 0.0 0.0 0.00 0.00 0.00 52 1013.5
20260504014350 49 231 0.0 0.0 0.00 0.00 0.00 52 1013.5
20260504013814 49 210 0.0 0.0 0.00 0.00 0.00 52 1013.5
20260504013318 49 198 0.0 0.0 0.00 0.00 0.00 52 1013.4
20260504012821 49 220 0.0 0.0 0.00 0.00 0.00 52 1013.3
20260504012322 49 246 0.0 0.0 0.00 0.00 0.00 51 1013.3
20260504011825 49 209 0.0 0.0 0.00 0.00 0.00 51 1013.2
20260504011325 49 217 0.0 0.0 0.00 0.00 0.00 51 1013.2
20260504010848 49 209 0.0 0.0 0.00 0.00 0.00 50 1013.2
20260504010409 49 242 0.0 0.0 0.00 0.00 0.00 50 1013.3
20260504005829 50 210 0.0 0.0 0.00 0.00 0.00 49 1013.2
20260504005313 50 205 0.0 0.0 0.00 0.00 0.00 49 1013.2
20260504004815 50 205 0.0 0.0 0.00 0.00 0.00 48 1013.2
20260504004318 50 245 0.0 0.0 0.00 0.00 0.00 48 1013.0
20260504003821 51 219 0.0 0.0 0.00 0.00 0.00 47 1013.0
20260504003347 51 217 0.0 0.0 0.00 0.00 0.00 47 1013.0
20260504002852 51 221 0.0 0.0 0.00 0.00 0.00 46 1012.9
20260504002314 52 240 0.0 0.0 0.00 0.00 0.00 46 1012.8
20260504001824 52 214 0.0 0.0 0.00 0.00 0.00 45 1012.8
20260504001328 52 224 0.0 0.0 0.00 0.00 0.00 44 1012.8
20260504000826 53 227 0.0 0.0 0.00 0.00 0.00 43 1012.6
20260504000330 53 222 0.0 0.0 0.00 0.00 0.00 42 1012.8
20260503235815 54 271 0.0 0.0 0.00 0.00 0.00 42 1012.8
20260503235339 54 225 0.0 0.0 0.00 0.00 0.00 41 1012.7
20260503234824 55 27 0.0 0.0 0.00 0.00 0.00 41 1012.7
20260503234348 55 243 0.0 0.0 0.00 0.00 0.00 41 1012.7
20260503233853 55 56 0.0 0.0 0.00 0.00 0.00 41 1012.6
20260503233317 56 268 0.0 8.0 0.00 0.00 0.00 40 1012.7
20260503232840 56 194 2.0 9.0 0.00 0.00 0.00 40 1012.6
20260503232341 56 307 0.0 1.0 0.00 0.00 0.00 39 1012.6
20260503231821 57 231 0.0 0.0 0.00 0.00 0.00 39 1012.5
20260503231326 58 156 0.0 0.0 0.00 0.00 0.00 37 1012.5
20260503230831 58 221 0.0 0.0 0.00 0.00 0.00 37 1012.5
20260503230316 59 77 0.0 0.0 0.00 0.00 0.00 36 1012.5
20260503225843 59 16 0.0 0.0 0.00 0.00 0.00 37 1012.5
20260503225326 59 6 0.0 0.0 0.00 0.00 0.00 38 1012.5
20260503224815 58 230 0.0 0.0 0.00 0.00 0.00 39 1012.5
20260503224322 58 343 0.0 0.0 0.00 0.00 0.00 39 1012.5
20260503223825 57 257 0.0 0.0 0.00 0.00 0.00 40 1012.5
20260503223352 56 318 0.0 0.0 0.00 0.00 0.00 39 1012.6
20260503222855 57 275 0.0 0.0 0.00 0.00 0.00 39 1012.6
20260503222316 57 245 0.0 0.0 0.00 0.00 0.00 38 1012.6
20260503221824 58 214 0.0 0.0 0.00 0.00 0.00 38 1012.6
20260503221329 58 239 0.0 0.0 0.00 0.00 0.00 37 1012.6
20260503220828 58 306 0.0 0.0 0.00 0.00 0.00 37 1012.7
20260503220313 59 297 0.0 0.0 0.00 0.00 0.00 36 1012.6
20260503215817 59 266 0.0 0.0 0.00 0.00 0.00 36 1012.6
20260503215322 59 256 0.0 0.0 0.00 0.00 0.00 36 1012.6
20260503214828 59 359 0.0 0.0 0.00 0.00 0.00 37 1012.8
20260503214317 58 256 0.0 0.0 0.00 0.00 0.00 37 1012.6
20260503213825 58 282 0.0 0.0 0.00 0.00 0.00 38 1012.6
20260503213328 57 314 0.0 0.0 0.00 0.00 0.00 41 1012.6
20260503212833 57 142 0.0 0.0 0.00 0.00 0.00 39 1012.5
20260503212316 57 240 0.0 0.0 0.00 0.00 0.00 39 1012.5
20260503211820 57 279 0.0 0.0 0.00 0.00 0.00 38 1012.6
20260503211322 57 65 0.0 0.0 0.00 0.00 0.00 38 1012.6
20260503210828 58 225 0.0 0.0 0.00 0.00 0.00 37 1012.5
20260503210334 58 300 0.0 0.0 0.00 0.00 0.00 36 1012.4
20260503205837 59 332 0.0 0.0 0.00 0.00 0.00 37 1012.4
20260503205313 58 302 0.0 0.0 0.00 0.00 0.00 36 1012.4
20260503204819 58 301 0.0 0.0 0.00 0.00 0.00 37 1012.8
20260503204324 58 240 0.0 0.0 0.00 0.00 0.00 37 1012.7
20260503203813 59 37 0.0 0.0 0.00 0.00 0.00 37 1012.7
20260503203318 60 49 0.0 0.0 0.00 0.00 0.00 35 1012.7
20260503202823 60 225 0.0 0.0 0.00 0.00 0.00 36 1012.5
20260503202348 60 40 0.0 10.0 0.00 0.00 0.00 38 1012.7
20260503201831 60 240 1.0 9.0 0.00 0.00 0.00 37 1013.0
20260503201338 60 339 1.0 5.0 0.00 0.00 0.00 35 1013.0
20260503200822 60 320 0.0 0.0 0.00 0.00 0.00 36 1013.0
20260503200325 59 272 0.0 0.0 0.00 0.00 0.00 37 1013.1
20260503195828 59 330 0.0 0.0 0.00 0.00 0.00 36 1013.0
20260503195353 59 28 0.0 0.0 0.00 0.00 0.00 36 1013.1
20260503194815 59 314 0.0 0.0 0.00 0.00 0.00 37 1013.1
20260503194342 58 297 0.0 0.0 0.00 0.00 0.00 37 1013.4
20260503193847 58 255 0.0 0.0 0.00 0.00 0.00 37 1013.3
20260503193328 58 307 0.0 0.0 0.00 0.00 0.00 38 1013.4
20260503192830 57 156 0.0 0.0 0.00 0.00 0.00 39 1013.5
20260503192312 57 313 0.0 0.0 0.00 0.00 0.00 39 1013.5
20260503191824 57 41 0.0 0.0 0.00 0.00 0.00 37 1013.7
20260503191327 57 303 0.0 0.0 0.00 0.00 0.00 39 1013.5
20260503190829 57 262 0.0 0.0 0.00 0.00 0.00 38 1013.6
20260503190314 58 345 0.0 0.0 0.00 0.00 0.00 37 1013.8
20260503185819 58 19 0.0 0.0 0.00 0.00 0.00 37 1013.7
20260503185323 58 360 0.0 0.0 0.00 0.00 0.00 38 1013.8
20260503184825 58 297 0.0 0.0 0.00 0.00 0.00 38 1013.9
20260503184327 58 254 0.0 0.0 0.00 0.00 0.00 38 1013.9
20260503183832 57 262 0.0 0.0 0.00 0.00 0.00 42 1013.8
20260503183316 56 117 0.0 0.0 0.00 0.00 0.00 40 1014.0
20260503182839 56 295 0.0 0.0 0.00 0.00 0.00 39 1014.1
20260503182322 56 336 0.0 0.0 0.00 0.00 0.00 40 1014.0
20260503181828 56 252 0.0 0.0 0.00 0.00 0.00 39 1014.1
20260503181316 56 345 0.0 0.0 0.00 0.00 0.00 38 1014.2
20260503180823 56 214 0.0 0.0 0.00 0.00 0.00 40 1014.1
20260503180329 55 251 0.0 0.0 0.00 0.00 0.00 41 1014.2
20260503175813 55 305 0.0 0.0 0.00 0.00 0.00 40 1014.2
20260503175322 55 249 0.0 0.0 0.00 0.00 0.00 39 1014.3
20260503174824 56 354 0.0 0.0 0.00 0.00 0.00 41 1014.4
20260503174330 56 309 0.0 0.0 0.00 0.00 0.00 41 1014.4
20260503173835 56 295 0.0 0.0 0.00 0.00 0.00 39 1014.3
20260503173318 56 260 0.0 0.0 0.00 0.00 0.00 40 1014.3
20260503172844 56 278 0.0 0.0 0.00 0.00 0.00 39 1014.3
20260503172327 56 209 0.0 10.0 0.00 0.00 0.00 40 1014.3
20260503171853 56 105 2.0 10.0 0.00 0.00 0.00 40 1014.3
20260503171317 55 291 0.0 0.0 0.00 0.00 0.00 42 1014.3
20260503170823 55 290 0.0 6.0 0.00 0.00 0.00 42 1014.4
20260503170327 54 311 1.0 8.0 0.00 0.00 0.00 42 1014.4
20260503150838 49 45 0.0 0.0 0.00 0.00 0.00 50 1015.6
20260503150324 49 34 0.0 8.0 0.00 0.00 0.00 50 1015.5
20260503131316 45 274 0.0 0.0 0.00 0.00 0.00 57 1016.0
20260503130822 45 341 0.0 0.0 0.00 0.00 0.00 57 1016.1
20260503130329 45 250 0.0 0.0 0.00 0.00 0.00 59 1016.0
20260503110349 34 284 0.0 0.0 0.00 0.00 0.00 77 1015.5
20260503090323 36 31 0.0 0.0 0.00 0.00 0.00 72 1014.6
20260503081326 36 316 0.0 0.0 0.00 0.00 0.00 71 1014.4
20260503080852 36 5 0.0 0.0 0.00 0.00 0.00 71 1014.4
20260503080318 36 49 0.0 0.0 0.00 0.00 0.00 71 1014.4
20260503072853 36 305 0.0 0.0 0.00 0.00 0.00 71 1014.2
20260503072318 36 47 0.0 0.0 0.00 0.00 0.00 70 1014.3
20260503071823 36 47 0.0 0.0 0.00 0.00 0.00 70 1014.2
20260503071326 36 47 0.0 0.0 0.00 0.00 0.00 71 1014.1
20260503070813 36 115 0.0 0.0 0.00 0.00 0.00 71 1014.2
20260503070340 36 27 0.0 0.0 0.00 0.00 0.00 70 1014.1
20260503060324 36 316 0.0 0.0 0.00 0.00 0.00 70 1014.2
20260503054816 37 2 0.0 0.0 0.00 0.01 0.00 70 1014.3
20260503054322 37 220 0.0 0.0 0.00 0.01 0.00 69 1014.3
20260503053848 37 220 0.0 0.0 0.00 0.01 0.00 68 1014.2
20260503053347 37 220 0.0 0.0 0.00 0.01 0.00 68 1014.4
20260503052829 38 220 0.0 0.0 0.00 0.01 0.00 68 1014.3
20260503052315 38 220 0.0 0.0 0.00 0.01 0.00 69 1014.3
20260503051822 38 220 0.0 0.0 0.00 0.01 0.00 69 1014.4
20260503051325 38 219 0.0 0.0 0.00 0.01 0.00 69 1014.4
20260503050849 38 219 0.0 0.0 0.00 0.01 0.00 70 1014.4
20260503050312 37 288 0.0 0.0 0.00 0.01 0.00 70 1014.5
20260503045816 37 3 0.0 0.0 0.00 0.06 0.00 70 1014.4
20260503045321 38 3 0.0 0.0 0.00 0.06 0.00 70 1014.5
20260503044827 38 3 0.0 0.0 0.00 0.06 0.00 69 1014.4
20260503044330 38 3 0.0 0.0 0.00 0.06 0.00 69 1014.5
20260503043815 38 3 0.0 0.0 0.00 0.06 0.00 69 1014.4
20260503043324 38 3 0.0 0.0 0.00 0.06 0.00 69 1014.4
20260503042831 38 3 0.0 0.0 0.00 0.06 0.00 68 1014.4
20260503042315 39 3 0.0 0.0 0.00 0.06 0.00 67 1014.5